Location: Zapote
(9.9191°N, 84.0597°W)
Time: 13:59:17
(UTC-06:00)

Vanguard 3 - Visible Passes

Search period start: 28 February 2021 00:00
Search period end: 10 March 2021 00:00
Orbit: 508 x 3261 km, 33.3° (Epoch: 28 February)

Date Brightness Start Highest point End Pass type
(mag) Time Alt. Az. Time Alt. Az. Time Alt. Az.
28 Feb 9.8 19:09:20 10° NW 19:16:12 17° N 19:20:02 13° NNE visible
01 Mar 10.1 17:49:12 10° NW 17:59:33 21° N 18:06:53 10° NE visible
01 Mar 9.7 20:09:29 10° NW 20:14:46 20° N 20:14:46 20° N visible
02 Mar 9.7 18:51:41 10° NW 19:00:12 20° N 19:04:59 13° NE visible
02 Mar 10.3 21:08:10 10° NW 21:09:32 14° NW 21:09:32 14° NW visible
03 Mar 9.3 19:51:46 10° NW 19:59:45 26° N 19:59:45 26° N visible
04 Mar 9.7 18:33:58 10° NW 18:44:09 24° N 18:49:59 13° NE visible
04 Mar 9.8 20:50:45 10° NW 20:54:34 23° NW 20:54:34 23° NW visible
05 Mar 9.0 19:34:01 10° NW 19:44:14 33° NNE 19:44:49 33° NNE visible
06 Mar 9.7 18:16:11 10° NW 18:28:01 28° N 18:35:07 12° ENE visible
06 Mar 9.3 20:33:17 10° NW 20:39:41 35° NW 20:39:41 35° NW visible
07 Mar 8.7 19:16:14 10° NW 19:28:04 41° NNE 19:30:01 37° NE visible
07 Mar 10.4 21:32:53 10° WNW 21:34:35 15° WNW 21:34:35 15° WNW visible
08 Mar 9.8 17:58:21 10° NW 18:11:47 33° NNE 18:20:14 10° ENE visible
08 Mar 8.6 20:15:47 10° NW 20:24:56 55° NW 20:24:56 55° NW visible
09 Mar 8.7 18:58:24 10° NW 19:11:48 51° NNE 19:15:19 35° ENE visible
09 Mar 10.0 21:15:52 10° WNW 21:19:55 23° W 21:19:55 23° W visible
